CZ-4B R/B (49073 NORAD) Tracking and Keplerian Element Data

This shows tracking and keplerian element data for the satellite.

Feedback or suggestion? Click here.




ElementValue
Catalog49073
NameCZ-4B R/B
Epoch Orbit434
Epoch Day258.99725307
Epoch Year2021
RAAN263.9186
Inclination97.4419
Eccentricity0.0126359
Argument of Perigee269.2812
Mean Anonmoly89.396
Mean Motion15.50644959
Decay Rate0.00011904
L11 49073U 21074C 21258.99725307 .00011904 00000-0 15010-3 0 9992
L22 49073 97.4419 263.9186 0126359 269.2812 89.3960 15.50644959 4344

Live tracking and technical data element details for CZ-4B R/B (NORAD 49073). CZ-4B R/B can be tracked NOW for your location showing map with azimuth and elevation plus other details from your city location.

Track the satellite on the map from your city or location and see movement details for azimuth, elevation, latitude, longitude, range, height, and movement on the map or in text.







IsCatalogInMostPopularTable: catalog: 49073, numindb: 4
Update: records affected: 1



GetName: 49073 CZ-4B R/B

Hit Count: updated at: Fri, 24 Sep 2021 19:01:39 GMT